Date String (YYYY-MM-DD hh:mm:ss) UTC,Instrument flags,absolute air pressure of the measurement (hPa),sample flow rate (lpm),inlet stack bypass flow (lpm),air temperature of the measurement (°C),ambient temperature measured by the external sensor (°C),aerosol sample conditioner tube jacket temperature (°C),OPC LED temperature (°C),internal box temperature (°C),relative humidity of the measurement (%),span deviation,mass concentration of particles derived from Lorenz-Mie calculation of OPC scattering (μg/m³),mass concentration of particles derived from Lorenz-Mie calculation of OPC scattering (μg/m³),mass concentration of particles derived from Lorenz-Mie calculation of OPC scattering (μg/m³)
DateTimeUTC,F1_M11,P_M11,Q1_M11,Q2_M11,T1_M11,T2_M11,T3_M11,T4_M11,T5_M11,U1_M11,ZSPAN_M11,X0_M11,X2_M11,X1_M11
2024-05-05 21:00:00,SystemResetWarning,0817.0,5.00,000.00,024.8,023.7,000.0,033.1,026.6,025.6,0000.0,0016.08,0005.92,0004.54
2024-05-05 21:01:00,SystemResetWarning,0816.9,4.99,000.00,024.9,024.0,000.0,033.1,026.7,025.4,0000.0,0017.48,0006.01,0004.59
2024-05-05 21:02:00,SystemResetWarning,0816.9,5.00,000.00,024.9,024.2,000.0,033.1,026.8,025.5,0000.0,0017.21,0006.04,0004.63
2024-05-05 21:03:00,SystemResetWarning,0816.9,5.00,000.00,025.0,024.3,000.0,033.1,026.9,026.0,0000.0,0017.28,0006.10,0004.65
2024-05-05 21:04:00,SystemResetWarning,0816.9,5.01,000.00,025.1,024.5,000.0,033.2,027.0,025.7,0000.0,0017.20,0006.15,0004.64
2024-05-05 21:05:00,SystemResetWarning,0816.9,5.01,000.00,025.2,024.6,000.0,033.2,027.1,025.8,0000.0,0017.03,0006.14,0004.64
2024-05-05 21:06:00,SystemResetWarning,0816.9,5.01,000.00,025.2,024.7,000.0,033.2,027.1,026.2,0000.0,0018.03,0006.14,0004.60
2024-05-05 21:07:00,SystemResetWarning,0816.9,4.99,000.00,025.3,024.8,000.0,033.3,027.2,026.5,0000.0,0018.90,0006.03,0004.54
2024-05-05 21:08:00,SystemResetWarning,0816.9,4.99,000.00,025.4,024.9,000.0,033.3,027.2,026.1,0000.0,0020.08,0005.94,0004.46
2024-05-05 21:09:00,SystemResetWarning,0816.8,5.00,000.00,025.2,023.4,000.0,033.4,026.4,026.0,0000.0,0019.46,0005.83,0004.40
2024-05-05 21:10:00,SystemResetWarning,0816.9,5.00,000.00,024.8,021.6,000.0,033.4,025.5,027.3,0000.0,0018.94,0005.78,0004.35
2024-05-05 21:11:00,SystemResetWarning,0816.8,5.01,000.00,024.5,021.6,000.0,033.4,025.3,028.0,0000.0,0017.95,0005.72,0004.29
2024-05-05 21:12:00,SystemResetWarning,0816.8,5.00,000.00,024.5,022.1,000.0,033.3,025.5,027.2,0000.0,0016.94,0005.70,0004.26
2024-05-05 21:13:00,SystemResetWarning,0816.7,4.99,000.00,024.5,022.5,000.0,033.1,025.8,028.2,0000.5,0017.29,0005.68,0004.21
2024-05-05 21:14:00,SystemResetWarning,0816.7,5.00,000.00,024.5,022.9,000.0,033.1,026.1,027.4,0000.0,0018.08,0005.63,0004.16
2024-05-05 21:15:00,SystemResetWarning,0816.7,5.00,000.00,024.6,023.2,000.0,033.0,026.3,027.2,0000.0,0019.00,0005.60,0004.13
2024-05-05 21:16:00,SystemResetWarning,0816.6,5.01,000.00,024.6,023.6,000.0,033.0,026.4,026.7,0000.0,0019.36,0005.58,0004.09
2024-05-05 21:17:00,SystemResetWarning,0816.6,5.01,000.00,024.7,023.8,000.0,033.0,026.5,026.4,0000.0,0020.02,0005.52,0004.05
2024-05-05 21:18:00,SystemResetWarning,0816.6,4.98,000.00,024.8,024.0,000.0,033.0,026.6,026.4,0000.0,0019.82,0005.53,0004.02
2024-05-05 21:19:00,SystemResetWarning,0816.6,5.00,000.00,024.9,024.2,000.0,033.0,026.7,026.4,0000.0,0018.88,0005.49,0003.99
2024-05-05 21:20:00,SystemResetWarning,0816.5,5.01,000.00,025.0,024.4,000.0,033.0,026.8,026.0,0000.0,0018.39,0005.54,0003.98
2024-05-05 21:21:00,SystemResetWarning,0816.5,5.00,000.00,025.0,024.5,000.0,033.1,026.9,025.0,0000.0,0018.26,0005.56,0003.99
2024-05-05 21:22:00,SystemResetWarning,0816.5,4.98,000.00,025.1,024.6,000.0,033.1,027.0,025.0,0000.0,0018.57,0005.57,0004.00
2024-05-05 21:23:00,SystemResetWarning,0816.5,4.99,000.00,025.2,024.8,000.0,033.1,027.1,024.8,0000.0,0018.49,0005.55,0003.98
2024-05-05 21:24:00,SystemResetWarning,0816.5,5.00,000.00,025.2,024.8,000.0,033.2,027.1,024.6,0000.0,0018.26,0005.56,0003.98
2024-05-05 21:25:00,SystemResetWarning,0816.4,5.00,000.00,025.1,023.3,000.0,033.3,026.3,025.1,0000.0,0017.59,0005.59,0004.00
2024-05-05 21:26:00,SystemResetWarning,0816.4,5.00,000.00,024.6,021.5,000.0,033.3,025.3,025.8,0000.0,0016.62,0005.59,0004.00
2024-05-05 21:27:00,SystemResetWarning,0816.3,5.01,000.00,024.4,021.5,000.0,033.3,025.2,026.3,0000.0,0017.37,0005.60,0004.02
2024-05-05 21:28:00,SystemResetWarning,0816.3,5.01,000.00,024.3,021.9,000.0,033.1,025.4,026.3,0000.0,0016.36,0005.66,0004.04
2024-05-05 21:29:00,SystemResetWarning,0816.3,4.99,000.00,024.4,022.3,000.0,033.0,025.7,026.6,0000.0,0016.07,0005.63,0004.05
2024-05-05 21:30:00,SystemResetWarning,0816.3,5.00,000.00,024.4,022.8,000.0,032.9,026.0,026.1,0000.0,0016.92,0005.64,0004.07
2024-05-05 21:31:00,SystemResetWarning,0816.3,5.01,000.00,024.5,023.1,000.0,032.9,026.2,025.6,0000.0,0016.73,0005.65,0004.08
2024-05-05 21:32:00,SystemResetWarning,0816.2,5.01,000.00,024.5,023.4,000.0,032.8,026.3,025.3,0000.0,0017.03,0005.64,0004.08
2024-05-05 21:33:00,SystemResetWarning,0816.2,5.00,000.00,024.6,023.7,000.0,032.8,026.4,025.1,0000.0,0017.65,0005.65,0004.06
2024-05-05 21:34:00,SystemResetWarning,0816.2,5.00,000.00,024.7,023.9,000.0,032.9,026.6,025.1,0000.0,0018.93,0005.62,0004.04
2024-05-05 21:35:00,SystemResetWarning,0816.2,5.00,000.00,024.8,024.1,000.0,032.9,026.7,024.8,0000.0,0020.24,0005.66,0004.02
2024-05-05 21:36:00,SystemResetWarning,0816.2,4.99,000.00,024.9,024.3,000.0,032.9,026.8,025.5,0000.0,0019.87,0005.66,0003.99
2024-05-05 21:37:00,SystemResetWarning,0816.2,4.99,000.00,024.9,024.4,000.0,032.9,026.9,026.1,0000.0,0020.09,0005.61,0003.94
2024-05-05 21:38:00,SystemResetWarning,0816.2,5.00,000.00,025.0,024.6,000.0,033.0,027.0,025.8,0000.0,0019.85,0005.53,0003.90
2024-05-05 21:39:00,SystemResetWarning,0816.2,5.01,000.00,025.1,024.7,000.0,033.0,027.0,025.4,0000.0,0021.09,0005.42,0003.84
2024-05-05 21:40:00,SystemResetWarning,0816.2,5.01,000.00,025.2,024.7,000.0,033.1,027.0,025.3,0000.0,0021.35,0005.39,0003.82
2024-05-05 21:41:00,SystemResetWarning,0816.1,4.98,000.00,025.0,023.3,000.0,033.2,026.2,026.3,0000.0,0020.59,0005.37,0003.78
2024-05-05 21:42:00,SystemResetWarning,0816.1,5.01,000.00,024.6,021.5,000.0,033.2,025.2,027.7,0000.0,0020.26,0005.30,0003.75
2024-05-05 21:43:00,SystemResetWarning,0816.1,5.02,000.00,024.4,021.6,000.0,033.2,025.2,028.1,0000.0,0020.94,0005.23,0003.70
2024-05-05 21:44:00,SystemResetWarning,0816.1,5.00,000.00,024.3,022.0,000.0,033.0,025.4,028.2,0000.0,0020.92,0005.20,0003.67
2024-05-05 21:45:00,SystemResetWarning,0816.1,5.00,000.00,024.3,022.4,000.0,032.9,025.7,026.9,0000.0,0020.36,0005.24,0003.66
2024-05-05 21:46:00,SystemResetWarning,0816.1,5.00,000.00,024.4,022.8,000.0,032.9,026.0,026.5,0000.0,0019.14,0005.13,0003.64
2024-05-05 21:47:00,SystemResetWarning,0816.1,5.00,000.00,024.5,023.2,000.0,032.8,026.2,026.4,0000.0,0019.14,0005.12,0003.63
2024-05-05 21:48:00,SystemResetWarning,0816.1,5.00,000.00,024.5,023.5,000.0,032.8,026.3,026.4,0000.0,0019.51,0005.09,0003.63
2024-05-05 21:49:00,SystemResetWarning,0816.0,4.98,000.00,024.6,023.7,000.0,032.8,026.5,026.3,0000.0,0018.89,0005.07,0003.63
2024-05-05 21:50:00,SystemResetWarning,0816.0,4.99,000.00,024.7,024.0,000.0,032.8,026.6,026.0,0000.0,0016.74,0005.07,0003.63
2024-05-05 21:51:00,SystemResetWarning,0816.0,5.00,000.00,024.8,024.2,000.0,032.8,026.7,027.0,0000.0,0016.98,0005.05,0003.60
2024-05-05 21:52:00,SystemResetWarning,0816.0,5.01,000.00,024.9,024.3,000.0,032.9,026.8,027.6,0000.0,0016.95,0005.02,0003.59
2024-05-05 21:53:00,SystemResetWarning,0815.9,5.01,000.00,025.0,024.5,000.0,032.9,026.9,026.5,0000.0,0016.69,0005.00,0003.57
2024-05-05 21:54:00,SystemResetWarning,0815.8,5.01,000.00,025.1,024.6,000.0,033.0,027.0,026.2,0000.0,0016.60,0005.01,0003.57
2024-05-05 21:55:00,SystemResetWarning,0815.8,5.00,000.00,025.1,024.6,000.0,033.0,027.0,025.9,0000.0,0016.79,0004.96,0003.56
2024-05-05 21:56:00,SystemResetWarning,0815.8,4.98,000.00,025.0,023.1,000.0,033.1,026.2,026.0,0000.0,0016.57,0004.89,0003.55
2024-05-05 21:57:00,SystemResetWarning,0815.7,5.01,000.00,024.6,021.5,000.0,033.1,025.3,027.0,0000.0,0016.45,0004.88,0003.53
2024-05-05 21:58:00,SystemResetWarning,0815.7,5.01,000.00,024.4,021.6,000.0,033.1,025.3,027.1,0000.0,0016.46,0004.85,0003.53
2024-05-05 21:59:00,SystemResetWarning,0815.7,4.99,000.00,024.3,022.0,000.0,033.0,025.5,027.6,0000.0,0016.79,0004.87,0003.54
